CRC

Crooked River Challenge - Rainy morning loft fly

Station: Inventory - T Race

Distance: 0.1 Miles    

Release: 15-May-2019 08:00

Weather Release:    Arrival:

Wind at Release:     Wind at Arrival:

Temp at Release: °    Temp at Arrival: °

Lofts: 147

Birds: 724

Clocked: 644

Good Luck to Everyone!
Drops Pos Breeder Pigeon Name Color Sex Ent Arrival Speed To Win Eligible OpBOpC
1 A P C Loft - TX 19054-AU19-APC BB C 1 10:38:08.73 1.113 00:00:00 Yes
1 Baldwin & Tilson - NC 9059-AU19-TENT BB H 1 10:38:08.77 1.113 00:00:00 Yes
1 A P C Loft - TX 19052-AU19-APC BB H 2 10:38:09.82 1.113 00:00:00 Yes
1 A P C Loft - TX 19244-AU19-APC BB H 3 10:38:09.84 1.113 00:00:00 Yes
5 Amer Loft - GA 0102-IF19-AFL BB C 1 10:38:15.84 1.112 00:00:09 Yes
5 Filipino-American Pigeon Fanciers Alliance - IL 0145-AU19-FAMP BB H 1 10:38:19.56 1.112 00:00:09 Yes
7 A P C Loft - TX 19064-AU19-APC BBSP H 4 10:38:21.43 1.111 00:00:17 Yes
7 Poorhouse Road Loft - VA 29719-AU19-ARPU G6 BBWF H 1 10:38:22.45 1.111 00:00:17 Yes
7 Shi Loft - PA 7031-IF19-ERIE BB H 1 10:38:22.53 1.111 00:00:17 Yes
7 Me Fui ! Vega Loft - FL 0027-AU19-VEGA BB C 1 10:38:23.89 1.111 00:00:17 Yes
7 D B J Loft - FL 1738-AU19-DBJ BC C 1 10:38:26.66 1.111 00:00:17 Yes
12 Amer Loft - GA 0119-IF19-AFL BB C 2 10:38:32.62 1.110 00:00:26 Yes
12 Greek Connection - SC 1225-AU19-GRK 611 BC H 1 10:38:35.76 1.110 00:00:26 Yes
14 Adam Hajduga - IL 0967-AU19-HAJD BCWF C 1 10:38:38.23 1.109 00:00:34 Yes
15 Pleasant Task Farm - PA 19049-AU19-PTF BB H 1 10:38:57.71 1.107 00:00:51 Yes
15 Yendez Loft - TX 0305-AU19-YEND BBWF H 1 10:39:01.05 1.107 00:00:51 Yes
17 Jimmy Zheng Loft - MS 0820-AU19-JZLT BCWF H 1 10:39:09.97 1.106 00:01:00 Yes
18 R & S Loft Of Tx - TX 0014-AU19-RS BB H 1 10:39:18.66 1.105 00:01:09 Yes
18 Slick Hills Loft - UT 39402-AU19-ARPU BC H 1 10:39:20.53 1.105 00:01:09 Yes
20 Bayside Loft - NY 56527-IF19-NEIL BBWF H 1 10:39:29.02 1.104 00:01:17 Yes
21 A P C Loft - TX 19129-AU19-APC BC H 5 10:39:34.42 1.103 00:01:26 Yes
22 Carter Mayotte - NE 0047-AU19-CART Omaha Omaha BBWF C 1 10:39:45.34 1.102 00:01:35 Yes
22 Horse Heaven Hills - OR 25309-AU19-AA BB H 1 10:39:45.90 1.102 00:01:35 Yes
24 Y Mtn Loft - TN 26744-AU19-YMTN BB C 1 10:40:20.54 1.098 00:02:10 Yes
24 Crazy Als Lofts - CO 5591-AU19-CRAZ BB H 1 10:40:21.69 1.098 00:02:10 Yes
26 Andy Skwiat - IN 0069-AU19-ANDY BBSP H 1 10:40:26.00 1.097 00:02:18 Yes
27 Me Fui ! Vega Loft - FL 0062-AU19-VEGA CHOC H 2 10:40:43.05 1.095 00:02:36 Yes
27 Kessler Family Loft - OR 0003-AU19-NRK Slick Nick BB H 1 10:40:43.33 1.095 00:02:36 Yes
29 Anshutz Family Lofts - WA 4005-AU19-LKC BB C 1 10:40:51.31 1.094 00:02:45 Yes
29 Greek Connection - SC 1247-AU19-GRK BBWF H 2 10:40:55.09 1.094 00:02:45 Yes
31 Great Wall - VA 13013-AU19-TONY BB H 1 10:41:01.72 1.093 00:02:54 Yes
32 Rueter Family Loft - OR 5329-AU19-CORP BB H 1 10:41:11.30 1.092 00:03:02 Yes
33 Ganus Family Loft - IN 0852-AU19-GFL BCWF C 1 10:41:18.79 1.091 00:03:11 Yes
34 Jimmy Zheng Loft - MS 0893-AU19-JZLT BB H 2 10:41:26.49 1.090 00:03:20 Lost
34 Da-Dong - WI 1621-AU19-RAC BB H 1 10:41:27.99 1.090 00:03:20 Yes
34 A-Lo Loft/Nemelka - UT 9021-AU19-NRPL ☯️Phantom Thread(Fx0) BBWF C 1 10:41:31.05 1.090 00:03:20 Yes
37 Not Eligible - IL Disqualified 1 10:41:39.42 1.089 00:03:29 No
37 Slick Hills Loft - UT 39416-AU19-ARPU BB C 2 10:41:40.65 1.089 00:03:29 Yes
39 Fanway Family Loft - NS 19136-CU19-CNRP BB H 1 10:41:41.67 1.088 00:03:38 Yes
39 Lamonta - OR 2507-AU19-FOYS BB C 1 10:41:42.05 1.088 00:03:38 Yes
39 Greek Connection - SC 1238-AU19-GRK BB H 3 10:41:43.55 1.088 00:03:38 Yes
39 Columba Loft - GA 9293-AU19-LYNC BC H 1 10:41:44.58 1.088 00:03:38 Yes
39 H.E.R__aviary - NC 9121-AU19-CV BB H 1 10:41:44.61 1.088 00:03:38 Yes
39 Van Den Bossche Brothers - ME 9228-IF19-CMP Mighty Moose BB C 1 10:41:46.01 1.088 00:03:38 Yes
39 S F L - WV 0059-AU19-SFL Pair 51 BB H 1 10:41:47.03 1.088 00:03:38 Yes
39 Lin Family Loft - GA 2045-AU19-LIN 林-lin1158 X 8072 BB H 1 10:41:48.17 1.088 00:03:38 Yes
47 Dayrit Lofts - CA 0819-AU19-GSP DC H 1 10:41:53.47 1.087 00:03:47 Yes
48 A-Lo-Loft - NY 2879-AU19-FOYS ☯️3997xNRPL8041☯️ BB H 1 10:42:07.89 1.086 00:03:56 Yes
49 Dennis Watson - OR 4110-AU19-LKC BB C 1 10:42:10.67 1.085 00:04:05 Yes
49 A Brother Loft - AL 6016-IF19-GPC BB C 1 10:42:10.96 1.085 00:04:05 Yes
49 Smith R.P.L. - UT 4524-AU19-SMIT BC H 1 10:42:12.01 1.085 00:04:05 Yes
49 Tom Arveson - WA 4300-AU19-LKC 4300 C 1 10:42:13.05 1.085 00:04:05 Yes
49 Lin Family Loft - GA 2047-AU19-LIN 林-lin1 X lin1109 BCWF H 2 10:42:13.22 1.085 00:04:05 Yes
49 Yendez Loft - TX 0307-AU19-YEND BB C 2 10:42:13.50 1.085 00:04:05 Yes
49 Iditarod Loft - NV 17217-AU19-AA BB H 1 10:42:15.18 1.085 00:04:05 Yes
49 Morningside Racing Loft - TX 1031-AU19-MSRL 7013X10169 STWF H 1 10:42:17.02 1.085 00:04:05 Yes
57 Billy & Ray - CO 19503-AU19-PUEB BB H 1 10:42:18.05 1.084 00:04:14 Yes
57 A P C Loft - TX 19019-AU19-APC BB H 6 10:42:20.44 1.084 00:04:14 Yes
57 P N W Challenge - ID 0005-AU19-PNWC BC H 1 10:42:21.48 1.084 00:04:14 Yes
57 Bayside Loft - NY 56525-IF19-NEIL BB H 2 10:42:22.39 1.084 00:04:14 Yes
57 Q-Ba Family Loft - TX 0744-AU19-SAIN BB C 1 10:42:22.77 1.084 00:04:14 Yes
62 Pl Abasolo Famloft - IL 0513-AU19-LCC BB H 1 10:42:35.54 1.082 00:04:32 Yes
62 Sunshine Loft 2 - SC 0140-AU19-PAK 6502/7445 BC C 1 10:42:36.49 1.082 00:04:32 Yes
62 Rueter Family Loft - OR 5323-AU19-CORP BB H 2 10:42:37.97 1.082 00:04:32 Yes
62 Bob Bostwick - CA 0903-AU19-COCO BB H 1 10:42:39.87 1.082 00:04:32 Yes
66 Andy Skwiat - IN 0015-AU19-ANDY BB H 3 10:42:45.13 1.081 00:04:41 Yes
66 Onlydaybird Syndicate - NV 14560-AU19-AA BC H 1 10:42:46.34 1.081 00:04:41 Yes
66 Andy Skwiat - IN 0010-AU19-ANDY BB H 2 10:42:52.35 1.081 00:04:41 Yes
66 Baldwin & Tilson - NC 9052-AU19-TENT BB H 2 10:42:53.11 1.081 00:04:41 Yes
70 Amer Loft - GA 0109-IF19-AFL BB H 3 10:42:54.18 1.080 00:04:50 Yes
70 M & Y Connection - MI 0025-AU19-MY 6026 x 79 BB C 1 10:42:55.26 1.080 00:04:50 Yes
70 Genesis Syndicate Loft - AZ 0708-AU19-GEN BBSP H 1 10:42:55.34 1.080 00:04:50 Yes
70 John Partridge - CA 1502-AU19-PASO BB H 1 10:42:58.78 1.080 00:04:50 Yes
70 Baptista - IL 0083-AU19-FAMP BC H 1 10:43:00.06 1.080 00:04:50 Yes
70 Kolvenbag & Son - PA 1348-IF19-KOLV BC H 1 10:43:00.98 1.080 00:04:50 Yes
76 Poorhouse Road Loft - VA 29712-AU19-ARPU G-6 BBWF H 2 10:43:03.16 1.079 00:04:59 Yes
76 Red Ass Ranch - TX 0417-AU19-RAR BB H 1 10:43:03.91 1.079 00:04:59 Yes
76 Tex-Mex Loft - TX 0104-AU19-TXMX Barbarosa RD C 1 10:43:05.31 1.079 00:04:59 Yes
76 Irishsyndicatelofts - AZ 0414-IF19-IRIS BC C 1 10:43:06.14 1.079 00:04:59 Yes
76 Genesis Syndicate Loft - AZ 0058-AU19-GEN BB C 2 10:43:09.41 1.079 00:04:59 Yes
81 Shi Loft - PA 7048-IF19-ERIE BBSP H 2 10:43:11.77 1.078 00:05:08 Yes
81 M & Y Connection - MI 0005-AU19-MY 116 x 8084 BB H 2 10:43:12.79 1.078 00:05:08 Yes
81 Khang Lofts - MN 0109-AU19-VIK BBWF C 1 10:43:13.83 1.078 00:05:08 Yes
81 Any Given Day Loft - TX 19046-AU19-ANYG DC H 1 10:43:18.79 1.078 00:05:08 Yes
85 Kolvenbag & Son - PA 1345-IF19-KOLV BB H 2 10:43:25.73 1.077 00:05:17 Yes
85 Amer Loft - GA 0013-IF19-AFL BB H 4 10:43:26.01 1.077 00:05:17 Yes
85 Highland Loft - NY 9136-AU19-DZ BB H 1 10:43:26.18 1.077 00:05:17 Yes
85 Emmalyn & Carelyn Loft - CA 0011-AU19-CEYX BBWF H 1 10:43:27.78 1.077 00:05:17 Yes
85 Crazy Als Lofts - CO 5566-AU19-CRAZ BB C 2 10:43:28.81 1.077 00:05:17 Yes
90 Zhengloft - FL 19160-IF19-ZHEN BB C 1 10:43:34.63 1.076 00:05:26 Yes
90 A H C Loft - FL 0219-AU19-NWFI 🍊565x3266🐲 BB H 1 10:43:36.19 1.076 00:05:26 Yes
90 Slick Hills Loft - UT 39408-AU19-ARPU BCWF H 3 10:43:36.56 1.076 00:05:26 Yes
93 Paul Yahiku - OR 19020-AU19-YAHI BB H 1 10:43:40.30 1.075 00:05:35 Yes
93 Sunshine Loft 2 - SC 0137-AU19-PAK Pak55/1551 BB H 2 10:43:41.37 1.075 00:05:35 Yes
93 Poorhouse Road Loft - VA 29708-AU19-ARPU TDLK BB H 3 10:43:45.81 1.075 00:05:35 Yes
93 Khang Lofts - MN 0001-AU19-KHAN "Who the Man" BB H 2 10:43:46.38 1.075 00:05:35 Yes
93 Sunshine Loft 2 - SC 0172-AU19-PAK 6511/6520 BBWF C 3 10:43:46.84 1.075 00:05:35 Yes
98 Baldwin & Tilson - NC 9099-AU19-TENT BBSP H 3 10:43:47.93 1.074 00:05:45 Yes
98 A-Lo Loft/Nemelka - UT 9024-AU19-NRPL ☯️Lily (3994xJ2) BBWF H 2 10:43:48.96 1.074 00:05:45 Yes
98 Portland Loft - OR 0510-AU19-JEDD BB C 1 10:43:48.99 1.074 00:05:45 Yes

There are 660 bird records

Note: These Race Results are unofficial and subject to change until verified by the Race Committee and declared final.